Location: Acquanegra
(45.1667°N, 10.4333°E)
Time: 11:35:43
(UTC+00:00)

Daily predictions for brighter satellites

Satellite Brightness Start Highest point End
(mag) Time Altitude Azimuth Time Altitude Azimuth Time Altitude Azimuth
BREEZE-M DEB (TANK) 4.3 15:58:22 10° W 16:02:15 66° N 16:15:35 10° ENE
Cosmos 44 3.5 16:02:45 10° NNW 16:08:05 79° NE 16:13:30 10° SE
CZ-4B R/B 3.4 16:04:01 10° SE 16:09:03 46° ENE 16:14:05 10° N
CZ-4B R/B 4.4 16:05:45 10° S 16:09:47 44° W 16:14:02 10° NNW
H-2A R/B 2.5 16:07:41 10° SSE 16:11:53 64° ENE 16:15:55 10° N
MOS 1-B 4.4 16:08:30 10° SSE 16:14:17 80° ENE 16:20:08 10° NNW
Cosmos 2369 Rocket 2.9 16:10:29 10° N 16:15:34 32° NE 16:20:34 10° ESE
Cosmos 1943 Rocket 2.4 16:11:56 10° NNW 16:17:19 48° ENE 16:22:43 10° SE
ADEOS Rocket 3.7 16:10:04 10° NNE 16:17:54 89° WNW 16:25:34 10° SSW
NOAA 12 4.3 16:13:31 10° SE 16:18:40 53° ENE 16:23:50 10° N
H-2A R/B 2.1 16:17:55 10° NNE 16:22:06 58° ESE 16:26:21 10° S
NOAA 6 4.1 16:20:14 10° SSE 16:25:23 85° WSW 16:30:34 10° NNW
Okean O Rocket 1.8 16:21:15 10° SSE 16:25:28 50° ENE 16:29:44 10° N
Cosmos 1782 3.7 16:22:55 10° SSE 16:26:19 28° E 16:29:45 10° NNE
Okean-O 4.3 16:25:18 10° E 16:27:27 13° ENE 16:29:35 10° NNE
CRYOSAT 2 4.3 16:24:42 10° N 16:29:38 81° E 16:34:32 10° S
H-2A R/B 3.9 16:26:17 10° S 16:30:01 48° W 16:33:48 10° NNW
ISS -2.3 16:27:43 10° WNW 16:30:36 26° N 16:32:58 13° NE
Cosmos 1633 Rocket 3.0 16:26:40 10° N 16:31:02 64° E 16:35:20 10° SSE
Cosmos 1933 3.3 16:27:52 10° S 16:31:54 71° E 16:35:58 10° NNE
Cosmos 2218 Rocket 4.0 16:31:24 10° N 16:37:31 63° E 16:43:36 10° SSE
Cosmos 2366 rocket 4.0 16:32:21 10° N 16:38:28 62° ENE 16:44:32 10° SSE
Cosmos 1867 4.4 16:33:37 10° WSW 16:38:51 47° NW 16:44:08 10° NNE
ERS-2 3.2 16:36:11 11° NE 16:39:07 26° E 16:42:15 10° SSE
Meteor 1-25 Rocket 4.2 16:33:39 10° N 16:39:19 77° E 16:45:02 10° SSE
Envisat 3.7 16:36:40 10° S 16:41:41 60° W 16:46:43 10° NNW
Lacrosse 5 rocket 2.1 16:44:08 10° W 16:47:33 36° NNW 16:50:15 14° NNE
Cosmos 773 Rocket 4.0 16:43:00 10° SSW 16:48:16 88° ESE 16:53:37 10° NNE
SL-23 DEB 4.1 16:45:23 10° SW 16:48:52 68° SE 16:52:39 18° ENE
NOSS 3-2 (A) 4.3 16:46:09 10° SSE 16:50:48 28° ESE 16:54:01 18° ENE
YAOGAN 6 3.8 16:47:20 10° S 16:50:50 45° W 16:54:18 10° NNW
Cosmos 1606 4.5 16:50:10 10° SW 16:53:44 34° WNW 16:57:18 10° N
FengYun 1-2 T 4.1 16:50:20 10° SSE 16:55:51 77° ENE 17:01:22 10° NNW
AQUARIUS 4.3 16:51:24 10° S 16:55:54 79° WSW 17:00:25 10° NNW
Feng Yun 1-1 Rocket 4.4 16:50:27 10° SE 16:56:01 54° ENE 17:01:27 10° N
OE (NEXTSAT) 4.2 16:53:11 10° W 16:56:40 78° N 16:58:30 26° E
SL-16 R/B 2.8 16:52:55 10° SW 16:58:28 56° WNW 17:04:03 10° NNE
CZ-4B R/B 1.3 16:56:26 17° NNE 16:58:40 54° E 17:01:47 10° S
BREEZE-M DEB (TANK) 1.6 17:00:41 10° WSW 17:03:02 61° NNW 17:03:26 45° NE
USA 215 3.9 16:59:21 19° ENE 17:03:29 37° SE 17:09:26 10° SSW
SMAP 3.8 17:00:22 10° S 17:04:56 57° W 17:09:33 10° NNW
Cosmos 1500 3.6 17:02:59 10° N 17:06:34 37° ENE 17:10:09 10° SE
YAOGAN 1 3.6 17:09:18 25° NE 17:09:18 25° NE 17:12:19 10° N
USA 238 DEB 4.2 17:03:57 10° S 17:09:51 37° ESE 17:13:06 23° ENE
USA 238 4.2 17:04:03 10° S 17:09:57 36° ESE 17:13:10 24° ENE
Cosmos 1656 Rocket 3.9 17:05:49 10° NNW 17:11:15 46° ENE 17:16:34 10° SE
Cosmos 1151 Rocket 3.8 17:07:54 10° SSW 17:12:05 53° WNW 17:16:16 10° N
SL-24 DEB 4.3 17:07:50 10° NNE 17:12:29 53° E 17:17:04 10° S
Cosmos 1470 Rocket 3.6 17:09:12 10° N 17:13:32 79° W 17:17:51 10° S
MOS 1 Rocket 4.3 17:13:25 23° NE 17:15:45 32° E 17:20:30 10° SSE
Cosmos 158 Rocket 4.2 17:14:48 10° S 17:19:25 40° ESE 17:20:55 32° ENE
Cosmos 1515 Rocket 3.5 17:15:39 10° S 17:20:02 88° WNW 17:24:29 10° N
Cosmos 2263 4.1 17:14:33 10° NNW 17:20:09 68° ENE 17:25:43 10° SE
CZ-2C R/B 3.2 17:15:59 10° SE 17:20:40 43° ENE 17:25:13 10° N
SWAS 4.3 17:18:01 10° SSW 17:22:16 74° ESE 17:24:10 32° NE
Cosmos 923 Rocket 4.2 17:17:49 10° S 17:22:46 46° ESE 17:24:50 30° NE
Cosmos 1238 Rocket 3.3 17:21:46 10° N 17:25:40 45° E 17:30:22 10° SSE
COSMO-SKYMED 1 2.4 17:23:06 18° NNE 17:26:21 72° ESE 17:30:41 10° S
Cosmos 1689 Rocket 3.9 17:29:01 20° SSE 17:29:01 20° SSE 17:30:09 10° S
USA 281 3.3 17:21:16 10° SE 17:27:32 50° ENE 17:33:51 10° NNW
Nadezhda 3 Rocket 4.0 17:23:06 10° S 17:29:21 62° E 17:35:37 10° NNE
X-37B 0.5 17:26:13 10° WSW 17:29:23 78° S 17:29:28 77° SSE
SAR-Lupe-4 3.4 17:29:13 52° NE 17:29:55 69° ESE 17:33:29 10° S
Helios 1A Rocket 3.7 17:33:25 35° NNE 17:33:25 35° NNE 17:36:03 10° N
Meteor 2-6 Rocket 4.1 17:26:54 10° S 17:32:26 68° E 17:37:15 13° NNE
Cosmos 2228 Rocket 3.1 17:28:09 10° S 17:32:37 61° E 17:34:29 33° NNE
Meteor 1-4 Rocket 4.0 17:30:46 10° SW 17:34:07 36° WNW 17:37:26 10° N
H-2A R/B 2.4 17:35:18 41° ENE 17:35:31 41° ENE 17:40:19 10° N
Cosmos 1812 2.5 17:32:39 10° S 17:36:27 67° E 17:36:35 66° E
USA 267 3.6 17:34:11 32° ENE 17:36:41 46° NNE 17:42:51 10° NW
Cosmos 1939 Rocket 3.2 17:34:19 10° S 17:38:10 64° W 17:42:05 10° NNW
Cosmos 1821 Rocket 3.9 17:32:08 10° N 17:38:24 76° E 17:44:45 10° SSE
CZ-4 R/B 4.3 17:35:48 10° SSE 17:39:56 89° ENE 17:44:06 10° NNW
CZ-4 R/B 1.9 17:41:27 43° NNE 17:41:27 43° NNE 17:44:23 10° N
Meteor 1-11 Rocket 3.9 17:35:51 10° N 17:41:30 52° ENE 17:47:14 10° SSE
NOSS 3-3 (A) 4.5 17:34:56 10° NW 17:42:22 66° NE 17:47:58 23° SE
NOSS 3-3 (C) 4.5 17:35:01 10° NW 17:42:28 66° NE 17:47:58 23° SE
PSLV R/B 3.7 17:42:20 66° ENE 17:42:43 73° ESE 17:46:45 10° S
CSL-04 Rocket 4.2 17:44:05 37° NE 17:44:05 37° NE 17:47:58 10° N
BREEZE-M DEB (TANK) 3.3 17:40:11 10° SW 17:42:53 29° S 17:42:53 29° S
Cosmos 1933 Rocket 4.2 17:39:11 10° NNW 17:43:34 56° W 17:47:55 10° S
Cosmos 44 Rocket 3.3 17:38:38 10° NNW 17:43:48 65° NE 17:45:09 47° ESE
IRS-1C Rocket 4.2 17:39:09 10° SSE 17:44:26 79° WSW 17:49:45 10° NNW
SAR-Lupe-1 4.1 17:46:35 70° NNW 17:46:53 76° WNW 17:50:27 10° SSW
Lacrosse 4 Rocket 3.2 17:45:33 10° S 17:46:59 19° SSE 17:46:59 19° SSE
Cosmos 1680 Rocket 3.5 17:44:25 10° S 17:49:36 61° ESE 17:50:18 55° ENE
SL-24 R/B 3.9 17:49:33 47° NNW 17:50:27 67° WNW 17:54:03 10° SSW
Cosmos 1603 3.8 17:48:21 10° SSW 17:53:58 72° WNW 17:56:56 29° NNE
CZ-2D R/B 3.8 17:51:16 10° S 17:55:01 57° W 17:58:51 10° NNW
Cosmos 1943 3.3 17:51:40 10° SSW 17:57:19 77° WNW 17:59:58 33° NNE
Cosmos 2369 Rocket 3.2 17:54:21 10° NW 17:59:45 45° WSW 18:05:04 10° S
Cosmos 1943 Rocket 4.2 17:56:12 10° NW 18:00:47 27° WSW 18:05:22 10° SSW
Okean-O 2.7 17:58:54 10° S 18:03:19 75° WSW 18:07:46 10° NNW
Cosmos 1461 4.0 17:59:41 10° SSW 18:02:44 38° S 18:02:44 38° S
Cosmos 1371 Rocket 4.5 17:59:54 10° NNW 18:03:40 45° N 18:03:40 45° N
ARGOS 4.3 18:08:31 30° N 18:08:31 30° N 18:11:16 10° N
CENTAUR R/B 2.4 18:01:47 10° SSW 18:07:29 60° ESE 18:07:44 60° ESE
ISS -1.4 18:04:44 10° NW 18:05:55 19° NW 18:05:55 19° NW
Cosmos 2112 Rocket 3.9 18:04:54 10° SSW 18:09:53 75° SE 18:09:53 75° SE
Cosmos 2056 Rocket 4.3 18:06:06 10° NNW 18:09:29 38° N 18:09:29 38° N
ERS-2 4.4 18:10:45 16° NNW 18:12:33 23° WNW 18:15:28 10° WSW
NOSS 3-2 (C) 3.3 18:10:05 10° SSW 18:15:10 64° SSE 18:15:10 64° SSE
Cosmos 1869 Rocket 4.2 18:13:55 10° NNW 18:22:43 10° S 18:22:42 10° S
BREEZE-M DEB (TANK) 3.6 18:13:47 10° WSW 18:19:59 58° WSW 18:19:59 58° WSW
Meteor 1-27 Rocket 3.8 18:15:36 10° S 18:20:11 63° S 18:20:11 63° S
Lacrosse 5 rocket 4.0 18:25:31 10° NW 18:25:53 11° NW 18:25:53 11° NW
NOSS 3-2 (A) 3.8 18:35:30 10° SW 18:41:07 57° NW 18:41:27 56° NNW
USA 215 3.2 18:46:42 73° NNW 18:46:47 73° NNW 18:53:18 10° WSW
USA 238 DEB 4.1 18:54:06 10° WSW 19:00:33 53° NW 19:00:35 53° NW
USA 238 4.1 18:54:10 10° WSW 19:00:38 54° NW 19:00:38 54° NW
H-2A R/B 3.9 19:15:55 26° WNW 19:15:55 26° WNW 19:19:27 10° NW
USA 267 4.0 19:21:32 46° WNW 19:21:32 46° WNW 19:26:02 10° NW
